Home   Weather   Cagliari   Past weeks

Flag for Italy Past Weather in Cagliari, Italy — Yesterday and Last 2 Weeks

Now
68 °F

Sunny.


Feels Like: 68 °F
Forecast: 53 / 68 °F
Wind: 10 mph from South

Location: Cagliari / Elmas

Current Time: Apr 24, 2017 at 1:56:21 pm

Latest Report: Apr 24, 2017 at 1:20 pm


Visibility: 10 mi

Pressure: 30.07 "Hg

Humidity: 64%

Dew Point: 55 °F

Location of CagliariLocation

Past Weather in Cagliari — Graph

°F

Cagliari Temperature Yesterday

Maximum temperature yesterday: 66 °F (at 12:50 pm)
Minimum temperature yesterday: 39 °F (at 5:50 am)
Average temperature yesterday: 55 °F

High & Low Weather Summary for the Past Weeks

 TemperatureHumidityPressure
High81 °F (Apr 15, 2:50 pm)100% (Apr 12, 6:50 am)30.36 "Hg (Apr 12, 6:50 am)
Low37 °F (Apr 21, 5:50 am)23% (Apr 22, 2:50 pm)29.86 "Hg (Apr 18, 2:50 pm)
Average59 °F66%30.09 "Hg
* Reported Apr 9 12:20 pm — Apr 24 12:20 pm, Cagliari, Weather by CustomWeather, © 2017

Note: Actual official high and low records may vary slightly from our data, if they occured in-between our weather recording intervals... More about our weather records

Advertising

Cagliari Weather History for the Previous 24 Hours

Scroll right to see more
 ConditionsComfort  
Time TempWeatherWind HumidityBarometerVisibility
12:20 pm
Mon, Apr 24
66 °FSunny.10 mph64%30.09 "Hg10 mi
11:50 am64 °FSunny.7 mph68%30.09 "Hg10 mi
11:20 am64 °FPassing clouds.7 mph64%30.09 "HgN/A
10:50 am64 °FPassing clouds.6 mph60%30.09 "HgN/A
10:20 am63 °FPassing clouds.3 mph64%30.09 "HgN/A
9:50 am59 °FSunny.2 mph68%30.09 "Hg10 mi
9:20 am54 °FSunny.5 mph77%30.09 "Hg10 mi
8:50 am52 °FSunny.6 mph77%30.09 "Hg10 mi
8:20 am48 °FSunny.3 mph87%30.07 "Hg10 mi
7:50 am45 °FSunny.6 mph87%30.07 "Hg10 mi
7:20 am43 °FSunny.6 mph87%30.07 "Hg10 mi
6:50 am41 °FSunny.6 mph93%30.07 "Hg10 mi
6:20 am43 °FClear.7 mph93%30.07 "Hg10 mi
5:50 am43 °FClear.5 mph93%30.07 "Hg10 mi
5:20 am43 °FClear.6 mph93%30.07 "Hg10 mi
4:50 am45 °FClear.5 mph87%30.07 "Hg10 mi
4:20 am45 °FClear.6 mph87%30.07 "Hg10 mi
3:50 am45 °FClear.6 mph87%30.07 "Hg10 mi
3:20 am46 °FClear.5 mph82%30.09 "Hg10 mi
2:50 am46 °FClear.5 mph87%30.09 "Hg10 mi
2:20 am50 °FClear.3 mph76%30.09 "Hg10 mi
1:50 am50 °FClear.2 mph76%30.09 "Hg10 mi
1:20 am48 °FClear.2 mph82%30.09 "Hg10 mi
12:50 am52 °FClear.2 mph77%30.09 "Hg10 mi
12:20 am52 °FClear.1 mph82%30.09 "Hg10 mi
11:50 pm
Sun, Apr 23
54 °FClear.2 mph77%30.09 "Hg10 mi
11:20 pm54 °FClear.2 mph72%30.09 "Hg10 mi
10:50 pm54 °FClear.3 mph77%30.09 "Hg10 mi
10:20 pm55 °FClear.2 mph72%30.09 "Hg10 mi
9:50 pm57 °FClear.2 mph67%30.09 "Hg10 mi
9:20 pm57 °FClear.2 mph72%30.09 "Hg10 mi
8:50 pm59 °FClear.5 mph68%30.07 "Hg10 mi
8:20 pm59 °FClear.6 mph68%30.07 "Hg10 mi
7:50 pm61 °FSunny.7 mph63%30.07 "Hg10 mi
7:20 pm61 °FSunny.8 mph63%30.07 "Hg10 mi
6:50 pm63 °FSunny.12 mph59%30.07 "Hg10 mi
6:20 pm63 °FSunny.10 mph56%30.07 "Hg10 mi
5:50 pm64 °FSunny.12 mph56%30.07 "Hg10 mi
5:20 pm64 °FSunny.14 mph56%30.07 "Hg10 mi
4:50 pm66 °FSunny.10 mph46%30.07 "Hg10 mi
4:20 pm66 °FSunny.10 mph46%30.07 "Hg10 mi
3:50 pm66 °FSunny.10 mph46%30.09 "Hg10 mi
3:20 pm66 °FSunny.9 mph32%30.09 "Hg10 mi
2:20 pm66 °FSunny.10 mph30%30.09 "Hg10 mi
1:50 pm66 °FSunny.9 mph35%30.09 "Hg10 mi
1:20 pm66 °FPassing clouds.6 mph35%30.09 "HgN/A
Weather by CustomWeather, © 2017

See weather overviewHow to use our weather pages